Flag for U.S.A. Weather past 2 weeks in Gainesville, Florida, U.S.A.

Now
65 °F

Partly sunny.


Feels Like: 65 °F
Forecast: 53 / 70 °F
Wind: 6 mph from Southwest

Location: Gainesville Regional Airport

Current Time: Mar 27, 2015 at 10:16:11 AM

Latest Report: Mar 27, 2015 at 8:53 AM


Visibility: 10 mi

Pressure: 29.84 "Hg

Humidity: 97%

Dew point: 64 °F

Location of GainesvilleLocation

Historic Weather in Gainesville — Graph

°F

Gainesville temperature yesterday

Maximum temperature yesterday: 80 °F (at 4:53 PM)
Minimum temperature yesterday: 58 °F (at 2:53 AM)
Average temperature yesterday: 66 °F

Past Weeks' High & Low Weather Summary

 TemperatureHumidityPressure
High86 °F (Mar 17, 3:53 PM)100% (Mar 12, 9:01 AM)30.24 "Hg (Mar 12, 9:01 AM)
Low54 °F (Mar 17, 3:53 AM)27% (Mar 16, 4:53 PM)29.79 "Hg (Mar 27, 5:53 AM)
Average70 °F79%30.05 "Hg
* Reported Mar 12 8:00 AM — Mar 27 8:53 AM, Gainesville, Weather by CustomWeather, © 2015

Note: Actual official high and low records may vary slightly from our data, if they occured in-between our weather recording intervals... More about our weather records

Advertising

Gainesville weather history for previous 24 hours

 ConditionsComfort  
Time TempWeatherWind HumidityBarometerVisibility
8:53 AM
Fri, Mar 27
65 °FPartly sunny.6 mph97%29.84 "Hg10 mi
7:53 AM64 °FPassing clouds.5 mph94%29.83 "Hg10 mi
6:53 AM62 °FClear.3 mph100%29.81 "Hg10 mi
5:53 AM64 °FClear.No wind97%29.79 "Hg10 mi
5:01 AM64 °FPassing clouds.No wind97%29.80 "Hg10 mi
4:00 AM65 °FLight rain. Mostly cloudy.10 mph94%29.80 "Hg10 mi
2:53 AM66 °FLight rain. Mostly cloudy.12 mph93%29.84 "Hg9 mi
2:03 AM66 °FLight rain. Overcast.9 mph93%29.88 "Hg9 mi
1:53 AM66 °FLight rain. Mostly cloudy.8 mph93%29.88 "Hg8 mi
12:53 AM66 °FLight rain. Passing clouds.8 mph93%29.87 "Hg10 mi
11:53 PM
Thu, Mar 26
66 °FLight rain. Overcast.8 mph90%29.87 "Hg10 mi
10:53 PM65 °FLight rain. Passing clouds.9 mph94%29.87 "Hg10 mi
9:53 PM65 °FLight rain. Passing clouds.7 mph97%29.89 "Hg8 mi
8:53 PM65 °FLight rain. Passing clouds.3 mph97%29.88 "Hg9 mi
7:53 PM66 °FLight rain. Cloudy.6 mph96%29.89 "Hg10 mi
6:53 PM70 °FBroken clouds.8 mph81%29.88 "Hg10 mi
5:53 PM77 °FPartly sunny.15 mph64%29.87 "Hg10 mi
4:53 PM80 °FPassing clouds.15 mph58%29.87 "Hg10 mi
3:53 PM79 °FBroken clouds.8 mph69%29.88 "Hg10 mi
2:53 PM78 °FBroken clouds.9 mph69%29.92 "Hg10 mi
1:53 PM77 °FBroken clouds.10 mph71%29.96 "Hg10 mi
12:53 PM73 °FPartly sunny.7 mph76%30.00 "Hg10 mi
11:53 AM69 °FPartly sunny.5 mph84%30.01 "Hg10 mi
10:53 AM66 °FMostly cloudy.9 mph93%30.03 "Hg7 mi
10:00 AM65 °FMostly cloudy.6 mph97%30.07 "Hg8 mi
Weather by CustomWeather, © 2015

See weather overviewHow to use our weather pages